Location: Ohmer (historical)
(38.0096°N, 122.0227°W)
Time: 19:29:08
(UTC+00:00)

Daily predictions for brighter satellites

Satellite Brightness Start Highest point End
(mag) Time Altitude Azimuth Time Altitude Azimuth Time Altitude Azimuth
Cosmos 2227 Rocket 3.1 12:20:24 30° N 12:22:44 45° ENE 12:28:07 10° SE
COSMOS 2455 2.9 12:27:33 76° NE 12:27:33 76° NE 12:33:07 10° NNE
Cosmos 2123 Rocket 4.5 12:24:30 10° N 12:30:37 58° E 12:36:41 10° SSE
NOSS 3-1 (C) 3.1 12:39:19 63° ENE 12:39:19 63° ENE 12:43:49 10° NE
SL-4 R/B 3.9 12:42:28 22° NE 12:42:28 22° NE 12:44:48 10° E
Cosmos 1980 Rocket 2.1 12:45:36 54° S 12:46:55 81° ESE 12:52:30 10° NNE
FALCON 9 R/B 3.2 12:53:07 17° ESE 12:53:07 17° ESE 12:53:51 10° ESE
Cosmos 1934 Rocket 3.8 12:47:50 10° S 12:53:56 80° W 13:00:09 10° N
Cosmos 1697 Rocket 3.7 12:59:09 30° NNW 12:59:09 30° NNW 13:02:40 10° N
Meteor 2-16 Rocket 4.3 12:54:38 10° NNW 13:00:41 65° W 13:06:42 10° S
Meteor 1-11 4.2 12:56:54 10° N 13:02:47 87° W 13:08:38 10° S
Cosmos 2292 Rocket 4.3 12:59:44 10° NNW 13:05:08 67° W 13:11:51 10° S
ISS -2.9 13:06:08 48° ESE 13:06:08 48° ESE 13:09:05 10° ENE
Cosmos 2297 Rocket 4.0 13:10:54 15° SSW 13:10:54 15° SSW 13:11:56 10° SSW
Cosmos 1674 Rocket 3.6 13:03:31 10° N 13:07:57 79° E 13:12:19 10° S
FengYun 1-2 T 4.1 13:06:16 10° N 13:11:41 65° WNW 13:17:06 10° SSW
IRS-1D 3.7 13:09:10 10° NNE 13:14:20 71° ESE 13:19:21 10° S
Cosmos 1503 Rocket 3.9 13:13:26 30° SW 13:15:58 67° WNW 13:21:11 10° NNE
Cosmos 1605 Rocket 4.0 13:09:54 10° S 13:16:18 87° E 13:22:42 10° N
Exosat Rocket 3.4 13:14:34 10° NNW 13:19:52 75° WSW 13:24:51 10° SSE
Cosmos 2219 4.0 13:17:58 10° NNW 13:23:32 51° ENE 13:29:01 10° SE
H-2A R/B 3.6 13:25:19 10° N 13:28:32 41° NW 13:28:32 41° NW
Cosmos 1570 Rocket 4.5 13:30:30 31° WNW 13:31:44 36° W 13:36:26 10° SSW
Cosmos 2263 Rocket 2.1 13:28:36 10° NNW 13:34:17 79° WSW 13:39:52 10° SSE
NOAA 12 4.0 13:31:54 10° N 13:37:07 63° WNW 13:42:20 10° SSW
SKYMED 2 3.5 13:35:03 10° S 13:39:22 68° WSW 13:43:42 10° NNW
CZ-2C R/B 4.4 13:39:17 10° NNW 13:39:41 11° NNW 13:39:41 11° NNW
Cosmos 1400 Rocket 2.5 13:39:27 10° SSW 13:43:13 79° W 13:47:02 10° N
Cosmos 1812 1.3 13:44:18 12° SSW 13:46:27 66° W 13:48:50 10° N
Cosmos 783 Rocket 4.4 13:43:33 10° NNW 13:48:45 82° WSW 13:53:55 10° SSE
Cosmos 2369 3.7 13:43:37 10° SW 13:49:11 58° WNW 13:54:47 10° NNE
Cosmos 1782 Rocket 3.5 13:45:33 10° S 13:49:55 90° WSW 13:54:23 10° N
Cosmos 1908 Rocket 3.9 13:46:10 10° SSW 13:50:15 41° W 13:54:24 10° N
Cosmos 2082 4.0 13:46:12 10° NNW 13:51:54 72° ENE 13:57:32 10° SSE
IGS 5A 3.5 13:48:15 10° NNE 13:52:14 76° E 13:56:11 10° S
CZ-4 R/B 3.9 13:49:26 10° N 13:54:19 58° WNW 13:59:10 10° SSW
SL-16 R/B 2.7 13:52:03 10° S 13:57:37 64° ESE 14:03:14 10° NNE
Intercosmos 25 Rocket 4.0 14:00:29 16° NW 14:02:05 23° W 14:04:50 10° SSW
Cosmos 372 Rocket 3.9 14:00:21 10° SSW 14:05:24 90° E 14:10:32 10° NNE
Cosmos 2227 Rocket 3.3 14:02:17 11° NW 14:06:24 23° W 14:10:44 10° SSW
Cosmos 1869 3.0 14:05:39 10° SSW 14:09:07 53° W 14:12:35 10° N
Cosmos 2333 Rocket 2.8 14:04:14 10° S 14:09:54 63° ESE 14:15:34 10° NNE
Cosmos 2221 Rocket 4.3 14:09:01 10° NNW 14:13:01 31° W 14:16:58 10° SSW
COSMOS 2455 4.3 14:10:43 13° WNW 14:13:42 17° NW 14:17:38 10° N
Cosmos 1898 Rocket 3.6 14:10:01 10° SSW 14:15:18 85° ESE 14:20:38 10° NNE
Cosmos 1025 Rocket 4.2 14:12:23 10° NW 14:15:40 21° W 14:18:56 10° SW
SL-4 R/B 1.9 14:16:05 11° WNW 14:19:30 54° SW 14:23:13 10° SE
Cosmos 1346 Rocket 2.6 14:16:08 10° N 14:19:49 84° E 14:23:29 10° S
Cosmos 2173 Rocket 4.0 14:20:05 10° S 14:26:26 77° W 14:32:50 10° N
GP-B 3.4 14:23:10 10° NNW 14:27:17 41° W 14:31:22 10° SSW
COSMO-SKYMED 1 3.2 14:23:41 10° SSW 14:27:20 31° W 14:31:02 10° NNW
Cosmos 2322 Rocket 2.8 14:22:29 10° S 14:28:05 63° ESE 14:33:40 10° NNE
Cosmos 1937 Rocket 3.6 14:23:14 10° SSW 14:28:22 81° ESE 14:33:34 10° NNE
BREEZE-M DEB (TANK) 4.3 14:14:08 10° WSW 14:28:52 64° NW 14:32:54 10° NE
Cosmos 1980 Rocket 3.8 14:28:30 10° W 14:31:33 15° NW 14:34:38 10° NNW
Cosmos 1602 3.4 14:28:58 10° NNW 14:31:34 37° W 14:34:09 10° SSW
Cosmos 2219 Rocket 4.2 14:27:23 10° SSE 14:32:25 35° ESE 14:37:28 10° NE
USA 215 3.5 14:32:02 10° SE 14:38:36 77° NE 14:45:10 10° NW
